Regional Weather Roundup
Issued by NWS

Home | Current Version | Previous Version | Text Only | Print | Product List | Glossary Off
Versions: 1 2 3 4 5 6 7 8 9 10 11 12 13 14 15 16 17 18 19 20 21 22 23 24 25 26 27 28 29 30 31 32 33 34 35 36 37 38 39 40 41 42 43 44 45 46 47 48 49 50

000
ASUS43 KMPX 200601
RWRMN
WEATHER ROUNDUP FOR MINNESOTA
NATIONAL WEATHER SERVICE TWIN CITIES/CHANHASSEN MN
1200 AM CST SAT DEC 20 2014


NOTE: "FAIR" INDICATES FEW OR NO CLOUDS BELOW 12,000 FEET WITH NO
SIGNIFICANT WEATHER AND/OR OBSTRUCTIONS TO VISIBILITY. N/A MEANS
CURRENT SKY AND/OR WEATHER CONDITIONS ARE NOT AVAILABLE.

MNZ060>063-068>070-200700-
   Twin Cities Metro

CITY           SKY/WX    TMP DP  RH WIND       PRES   REMARKS
TWIN CITIES    CLOUDY    29  24  82 S9        30.17S HAZE    WCI  20
6HR MIN TEMP:  29; 6HR MAX TEMP:  30;

ST PAUL        CLOUDY    29  25  85 S13       30.18F WCI  19
CRYSTAL        CLOUDY    30  26  85 SE9       30.15S FOG     WCI  22
BLAINE         CLOUDY    30  28  93 SE8       30.15S WCI  23
LAKEVILLE      CLOUDY    28  25  86 S6        30.16F WCI  22
EDEN PRAIRIE   CLOUDY    30  25  81 SE12      30.15S HAZE    WCI  20
6HR MIN TEMP:  30; 6HR MAX TEMP:  30;

SOUTH ST PAUL  CLOUDY    30  25  83 SE7       30.17F WCI  23
LAKE ELMO      CLOUDY    30  27  86 S8        30.18S WCI  23
$$
MNZ001>005-007-008-013>017-022>024-027-028-200700-
   Northwest Minnesota

CITY           SKY/WX    TMP DP  RH WIND       PRES   REMARKS
BEMIDJI        LGT SNOW  26  25  97 SE5       30.02S WCI  20
HALLOCK        CLOUDY    28  28 100 CALM      30.00S FOG
ROSEAU         CLOUDY    27  21  80 SE7       30.02S HAZE    WCI  19
WARROAD        CLOUDY    27  21  80 SE7       30.03S FOG     WCI  19
THIEF RVR FALL CLOUDY    27  27 100 SE7       30.01S WCI  19
CROOKSTON      CLOUDY    30  28  93 S9        30.02S FOG     WCI  22
FOSSTON        CLOUDY    27  27 100 S9        30.01F FOG     WCI  17
DETROIT LAKES  CLOUDY    30  30 100 S8        30.02S FOG     WCI  23
MOORHEAD       CLOUDY    30  30 100 S7        30.03S FOG     WCI  23
PARK RAPIDS    LGT SNOW  29  28  96 S8        30.02S FOG     WCI  21
MAHNOMEN       CLOUDY    29  28  96 S13       30.01S FOG     WCI  19
$$
MNZ006-009>011-018-025>026-200700-
   North Central Minnesota

CITY           SKY/WX    TMP DP  RH WIND       PRES   REMARKS
BAUDETTE       LGT SNOW  25  22  88 SE6       30.04S FOG     WCI  18
FLAG ISLAND    CLOUDY    25  23  93 S13       30.03F FOG     WCI  13
INTL FALLS     LGT SNOW  24  22  91 SE6       30.07F FOG     WCI  17
6HR MIN TEMP:  24; 6HR MAX TEMP:  25; 6HR PCP:  0.01;

WASKISH        LGT SNOW  27  25  93 CALM      30.04F
BIG FORK       LGT SNOW  27  23  86 SE6       30.06S WCI  20
LONGVILLE      CLOUDY    27  27 100 S7        30.06S FOG     WCI  19
GRAND RAPIDS   CLOUDY    25  21  86 SE9       30.06F WCI  15
CRANE LAKE     LGT SNOW  23  21  93 CALM      30.12F VSB 1
ORR            MIX PCPN  25  21  86 SE5       30.06F WCI  19
COOK           LGT SNOW  25  23  93 SE6       30.09F WCI  18
WALKER         CLOUDY    26  25  98 SE5       30.03S FOG     WCI  20
$$
MNZ012-019>021-037-200700-
   Northeast Minnesota

CITY           SKY/WX    TMP DP  RH WIND       PRES   REMARKS
DULUTH         CLOUDY    25  22  88 SE6       30.12F FOG     WCI  18
6HR MIN TEMP:  24; 6HR MAX TEMP:  25; 6HR PCP: TRACE;

ELY            CLOUDY    25  21  86 S5        30.11S WCI  19
HIBBING        LGT SNOW  25  22  88 SE7       30.09F FOG     WCI  17
EVELETH        MIX PCPN  27  25  93 S9        30.11F WCI  17
DULUTH HARBOR  CLOUDY    28  25  86 CALM      30.18F
SILVER BAY     CLOUDY    28  27  93 CALM      30.14  FOG
GRAND MARAIS     N/A     28  23  81 CALM      30.19F
G MARAIS ARPRT CLOUDY    21  18  86 CALM      30.12F
$$
MNZ029>031-032-039>041-046>048-054>057-064-200700-
   West Central Minnesota

CITY           SKY/WX    TMP DP  RH WIND       PRES   REMARKS
FERGUS FALLS   CLOUDY    30  28  93 S14       30.06F FOG     WCI  20
WHEATON        CLOUDY    28  27  93 S9        30.05F WCI  20
MORRIS         CLOUDY    30  28  93 S10       30.05R FOG     WCI  21
ALEXANDRIA     CLOUDY    30  27  88 S14G22    30.06S FOG     WCI  19
ELBOW LAKE     CLOUDY    29  29  98 S15       30.04S FOG     WCI  18
WADENA         CLOUDY    28  28 100 S7        30.04R FOG     WCI  21
GLENWOOD       CLOUDY    28  28 100 S20       30.07S FOG     WCI  15
APPLETON       CLOUDY    32  28  86 S6        30.06S WCI  26
BENSON         CLOUDY    30  28  93 SW13      30.07S FOG     WCI  20
ORTONVILLE     CLOUDY    30  27  86 S6        30.05R FOG     WCI  24
MADISON        PTCLDY    34  32  93 S6        30.06R WCI  29
WILLMAR        CLOUDY    32  28  86 S7        30.09F FOG     WCI  26
$$
MNZ033>034-036-042>043-049>051-058-059-200700-
   Central Minnesota

CITY           SKY/WX    TMP DP  RH WIND       PRES   REMARKS
ST CLOUD       CLOUDY    32  27  81 S12       30.11S HAZE    WCI  23
6HR MIN TEMP:  30; 6HR MAX TEMP:  32;

SAUK CENTRE    CLOUDY    30  28  93 S15       30.08S FOG     WCI  19
PAYNESVILLE    CLOUDY    29  28  96 SE7       30.09S FOG     WCI  21
AITKIN         CLOUDY    28  25  86 S8        30.07F HAZE    WCI  20
PINE RIVER     CLOUDY    27  27 100 SE9       30.08F FOG     WCI  17
BRAINERD       CLOUDY    27  26  96 S8        30.08S FOG     WCI  19
STAPLES        CLOUDY    27  27 100 SE7       30.05F FOG     WCI  19
LONG PRAIRIE   CLOUDY    30  28  93 S9        30.07S FOG     WCI  22
LITTLE FALLS   CLOUDY    30  28  93 SE8       30.09F FOG     WCI  23
LITCHFIELD     CLOUDY    32  30  93 SE6       30.11S FOG     WCI  26
BUFFALO        CLOUDY    30  28  90 SE7       30.14F FOG     WCI  23
MAPLE LAKE     CLOUDY    31  30  95 SE8       30.13S FOG     WCI  24
$$
MNZ037-044-045-052-053-200700-
   East Central Minnesota

CITY           SKY/WX    TMP DP  RH WIND       PRES   REMARKS
PRINCETON      CLOUDY    30  27  86 SE7       30.13F FOG     WCI  23
MORA           CLOUDY    27  23  86 S7        30.15F WCI  19
CAMBRIDGE      CLOUDY    30  21  69 SE5       30.13F WCI  25
RUSH CITY      CLOUDY    28  24  87 S6        30.16S WCI  21
MOOSE LAKE     CLOUDY    28  23  80 S3        30.12S
HINCKLEY       CLOUDY    28  27  93 CALM      30.14F
CLOQUET        CLOUDY    25  21  86 SE3       30.12F FOG
MCGREGOR       CLOUDY    28  27  93 S8        30.10F WCI  20
$$
MNZ071>073-080-081-089-090-097-098-200700-
   Southwest Minnesota

CITY           SKY/WX    TMP DP  RH WIND       PRES   REMARKS
MONTEVIDEO     CLOUDY    30  30 100 SW9       30.08R FOG     WCI  22
GRANITE FALLS  CLOUDY    31  28  90 S13       30.10S WCI  21
CANBY          CLOUDY    32  30  92 S9        30.07R WCI  24
MARSHALL       CLOUDY    30  27  86 S15       30.08S WCI  19
REDWOOD FALLS  CLOUDY    32  28  85 S13       30.10F FOG     WCI  22
OLIVIA         CLOUDY    32  30  93 S9        30.09S FOG     WCI  24
PIPESTONE      CLOUDY    30  28  93 S6        30.05S FOG     WCI  24
WINDOM         CLOUDY    30  28  93 S8        30.10S FOG     WCI  23
WORTHINGTON    CLOUDY    28  27  93 S14       30.09S WCI  17
JACKSON        CLOUDY    32  30  93 S10G17    30.11S WCI  24
TRACY          CLOUDY    32  29  91 SW14      30.09R WCI  22
SLAYTON        CLOUDY    29  29  99 S6        30.07F FOG     WCI  23
$$
MNZ065>067-074>077-082>085-091>093-200700-
   South Central Minnesota

CITY           SKY/WX    TMP DP  RH WIND       PRES   REMARKS
MANKATO        CLOUDY    30  27  86 S9        30.15S WCI  22
NEW ULM        CLOUDY    30  30 100 S9        30.13S FOG     WCI  22
ST JAMES       CLOUDY    34  30  86 SE9       30.14S FOG     WCI  26
FAIRMONT       CLOUDY    30  27  86 S15       30.13S WCI  19
GLENCOE        CLOUDY    32  31  96 SE9       30.12F FOG     WCI  24
FARIBAULT      CLOUDY    28  27  93 S7        30.16F FOG     WCI  21
OWATONNA       CLOUDY    28  25  86 SE10      30.16F FOG     WCI  19
WASECA         CLOUDY    30  28  93 SE6       30.17F FOG     WCI  24
ALBERT LEA     CLOUDY    28  28 100 S8        30.16S FOG     WCI  20
$$
MNZ078>079-086>088-094>096-200700-
   Southeast Minnesota

CITY           SKY/WX    TMP DP  RH WIND       PRES   REMARKS
ROCHESTER      CLOUDY    27  23  85 S10       30.18S WCI  17
6HR MIN TEMP:  27; 6HR MAX TEMP:  27;

RED WING       CLOUDY    30  23  74 SE5       30.19S WCI  25
STANTON        CLOUDY    30  26  83 S7        30.16F WCI  23
DODGE CENTER   CLOUDY    28  27  93 S10       30.16F FOG     WCI  19
WINONA         CLOUDY    30  23  74 SE3       30.23F
AUSTIN         CLOUDY    28  25  86 S5        30.17F WCI  23
PRESTON        CLOUDY    26  22  84 S6        30.19S WCI  20
$$
ABBREVIATIONS USED IN REMARKS
   TC - TEMPERATURES IN CELSIUS
  WCI - WIND CHILL INDEX
   HX - HEAT INDEX
  VSB - VISIBILITY
$$



USA.gov is the U.S. government's official web portal to all federal, state and local government web resources and services.